Hilton Head Island, SC

8:36 AM EDT on April 25, 2018 (GMT -0400)
Hilton Head

Weather History for KHXD - November, 2013

Change the Weather History Date:

Sunday, November 17, 2013

  Actual Average Record
Temperature  
Mean Temperature 66 °F -  
Max Temperature 73 °F 68 °F 84 °F (1964)
Min Temperature 60 °F 46 °F 30 °F (1970)
Cooling Degree Days 2    
Growing Degree Days 16 (Base 50)    
Moisture  
Dew Point 65 °F    
Average Humidity 95    
Maximum Humidity 100    
Minimum Humidity 88    
Precipitation  
Precipitation 0.00 in - - ()
Sea Level Pressure  
Sea Level Pressure 30.09 in    
Wind  
Wind Speed 5 mph (NE)    
Max Wind Speed 8 mph    
Max Gust Speed -    
Visibility 9 miles    
Events      
Averages and records for this station are not official NWS values.
T = Trace of Precipitation, MM = Missing Value Source: NWS Daily Summary

Daily Weather History Graph

Daily Weather History Graph

Search for Another Location

Airport or City:

Astronomy

Nov. 17, 2013 Rise Set
Actual Time 6:53 AM EST 5:21 PM EST
Civil Twilight 6:27 AM EST 5:47 PM EST
Nautical Twilight 5:58 AM EST 6:17 PM EST
Astronomical Twilight 5:28 AM EST 6:46 PM EST
Moon 5:37 PM EST (11/17) 6:47 AM EST (11/17)
Length of Visible Light 11h 19m
Length of Day
10h 27m
Full, 100% of the Moon is Illuminated
Nov 17
Full
Nov 25
Last Quarter
Dec 2
New
Dec 9
First Quarter
Dec 17
Full

Hourly Weather History & Observations

Time (EST) Temp. Dew Point Humidity Pressure Visibility Wind Dir Wind Speed Gust Speed Precip Events Conditions
12:15 AM 62.6 °F 62.6 °F 100% 30.17 in 10.0 mi North 4.6 mph - 0.00 in   Scattered Clouds
12:35 AM 62.6 °F 62.6 °F 100% 30.17 in 10.0 mi North 5.8 mph - 0.00 in   Partly Cloudy
12:55 AM 62.6 °F 60.8 °F 94% 30.16 in 10.0 mi North 5.8 mph - 0.00 in   Partly Cloudy
1:15 AM 62.6 °F 62.6 °F 100% 30.16 in 10.0 mi North 5.8 mph - 0.00 in   Clear
1:35 AM 62.6 °F 62.6 °F 100% 30.16 in 10.0 mi North 4.6 mph - 0.00 in   Clear
1:55 AM 62.6 °F 62.6 °F 100% 30.16 in 10.0 mi North 4.6 mph - 0.00 in   Scattered Clouds
2:15 AM 64.4 °F 62.6 °F 94% 30.15 in 10.0 mi North 4.6 mph - 0.00 in   Mostly Cloudy
2:35 AM 64.4 °F 62.6 °F 94% 30.14 in 10.0 mi NNE 5.8 mph - 0.00 in   Mostly Cloudy
2:55 AM 64.4 °F 62.6 °F 94% 30.13 in 10.0 mi NNE 8.1 mph - 0.00 in   Scattered Clouds
3:15 AM 64.4 °F 62.6 °F 94% 30.13 in 10.0 mi NNE 6.9 mph - 0.00 in   Clear
3:35 AM 64.4 °F 62.6 °F 94% 30.12 in 10.0 mi NNE 6.9 mph - 0.00 in   Partly Cloudy
3:55 AM 64.4 °F 64.4 °F 100% 30.12 in 10.0 mi NNE 5.8 mph - 0.00 in   Clear
4:15 AM 64.4 °F 64.4 °F 100% 30.12 in 10.0 mi NNE 6.9 mph - 0.00 in   Clear
4:35 AM 64.4 °F 62.6 °F 94% 30.11 in 10.0 mi North 3.5 mph - 0.00 in   Scattered Clouds
4:55 AM 64.4 °F 62.6 °F 94% 30.11 in 10.0 mi NNE 5.8 mph - 0.00 in   Partly Cloudy
5:15 AM 64.4 °F 62.6 °F 94% 30.11 in 10.0 mi NE 4.6 mph - 0.00 in   Clear
5:35 AM 64.4 °F 62.6 °F 94% 30.11 in 10.0 mi NNE 5.8 mph - 0.00 in   Mostly Cloudy
6:50 AM 60.8 °F 59.0 °F 94% - 10.0 mi NNE 5.8 mph - N/A   Scattered Clouds
7:50 AM 64.4 °F 60.8 °F 88% - 10.0 mi NNE 5.8 mph - N/A   Scattered Clouds
8:50 AM 62.6 °F 60.8 °F 94% - 1.0 mi NNE 5.8 mph - N/A   Overcast
9:50 AM 64.4 °F 62.6 °F 94% - 1.0 mi NNE 5.8 mph - N/A   Overcast
10:50 AM 68.0 °F 64.4 °F 88% - 3.0 mi NNE 5.8 mph - N/A   Overcast
11:50 AM 69.8 °F 68.0 °F 94% 30.11 in 7.0 mi Calm Calm - N/A   Overcast
12:50 PM 73.4 °F 69.8 °F 88% 30.09 in 10.0 mi Calm Calm - N/A   Mostly Cloudy
1:10 PM 71.6 °F 69.8 °F 94% 30.08 in 10.0 mi Calm Calm - N/A   Overcast
1:50 PM 73.4 °F 69.8 °F 88% 30.06 in 10.0 mi North - - N/A   Mostly Cloudy
2:45 PM 73.4 °F 69.8 °F 88% 30.04 in 10.0 mi North - - N/A   Mostly Cloudy
3:50 PM 71.6 °F 69.8 °F 94% 30.03 in 10.0 mi Calm Calm - N/A   Mostly Cloudy
5:50 PM 68.0 °F 66.2 °F 94% 30.04 in 10.0 mi Calm Calm - N/A   Scattered Clouds
6:50 PM 66.2 °F 66.2 °F 100% 30.03 in 0.0 mi Calm Calm - N/A   Clear
8:15 PM 66.2 °F 66.2 °F 100% 30.04 in 9.0 mi SSE 4.6 mph - 0.00 in   Partly Cloudy
8:35 PM 66.2 °F 66.2 °F 100% 30.04 in 10.0 mi SSE 4.6 mph - 0.00 in   Clear
8:55 PM 66.2 °F 66.2 °F 100% 30.03 in 10.0 mi SSE 4.6 mph - 0.00 in   Clear
9:15 PM 68.0 °F 66.2 °F 94% 30.04 in 10.0 mi SSE 3.5 mph - 0.00 in   Clear
9:35 PM 68.0 °F 66.2 °F 94% 30.04 in 10.0 mi SSE 3.5 mph - 0.00 in   Clear
9:55 PM 68.0 °F 66.2 °F 94% 30.04 in 10.0 mi SSE 3.5 mph - 0.00 in   Clear
10:15 PM 68.0 °F 68.0 °F 100% 30.03 in 10.0 mi SSE 5.8 mph - 0.00 in   Clear
10:35 PM 69.8 °F 68.0 °F 94% 30.04 in 10.0 mi SSE 4.6 mph - 0.00 in   Partly Cloudy
10:55 PM 69.8 °F 68.0 °F 94% 30.03 in 10.0 mi SSE 4.6 mph - 0.00 in   Scattered Clouds
11:15 PM 69.8 °F 68.0 °F 94% 30.03 in 10.0 mi South 5.8 mph - 0.00 in   Partly Cloudy
11:35 PM 69.8 °F 69.8 °F 100% 30.03 in 10.0 mi South 4.6 mph - 0.00 in   Clear
11:55 PM 69.8 °F 69.8 °F 100% 30.02 in 10.0 mi South 6.9 mph - 0.00 in   Clear